[[{"header":{"parameterUnit":"m.s-1","parameterCategory":1,"la1":30.2991,"la2":30.254,"lo1":-89.0895,"lo2":-89.0444,"dy":0.0017,"dx":0.0017,"nx":28,"ny":28,"refTime":"2024-05-16T09:00:00:Z","depth":0,"parameterNumber":2,"parameterNumberName":"U-component_of_WINDS"},"data":[0,0,0,0,0,0,0,0,0,0,0,0,0,0,0,0,0,0,0,0,0,0,0,0,0,0,0,0,0,0,0,0,0,0,0,0,0,0,0,0,0,0,0,0,0,0,0,0,0,0,0,0,0,0,0,0,0,0,-0.7001,-0.7002,0,-0.7063,-0.7064,-0.7065,-0.7121,-0.7122,-0.7123,-0.7123,-0.7189,-0.719,-0.7191,0,0,0,0,0,0,0,0,0,0,0,0,0,-0.6933,-0.6934,-0.7001,-0.7002,-0.7002,-0.7063,-0.7064,-0.7065,-0.7121,-0.7122,-0.7123,-0.7124,-0.7189,-0.719,-0.7191,0,0,0,0,0,0,0,0,0,0,0,0,0,-0.6976,-0.6934,-0.7001,-0.7038,-0.7042,-0.7063,-0.7064,-0.7065,-0.7121,-0.7122,-0.7123,-0.7124,-0.7188,-0.719,-0.7191,-0.7182,0,0,-0.7197,-0.7197,0,0,0,0,0,0,0,0,-0.6973,-0.6978,-0.7032,-0.7035,-0.704,-0.7085,-0.7064,-0.7104,-0.7121,-0.7091,-0.7123,-0.7124,-0.7154,-0.7158,-0.7168,-0.7185,-0.7188,-0.7197,-0.7198,-0.7198,-0.7199,0,0,0,0,0,0,0,-0.697,-0.6976,-0.7026,-0.7032,-0.7037,-0.7052,-0.7059,-0.7072,-0.7116,-0.7094,-0.7098,-0.7104,-0.7156,-0.7166,-0.717,-0.7189,-0.7197,-0.7198,-0.7199,-0.72,-0.7202,-0.7201,0,0,0,0,0,0,-0.6961,-0.6973,-0.7024,-0.7028,-0.7008,-0.7053,-0.7061,-0.707,-0.7116,-0.7124,-0.7103,-0.7107,-0.7163,-0.7168,-0.7172,-0.7164,-0.7198,-0.72,-0.7201,-0.7203,-0.7201,-0.72,0,0,0,0,0,0,-0.696,-0.6965,-0.7021,-0.7001,-0.701,-0.7053,-0.7063,-0.7071,-0.708,-0.7123,-0.7132,-0.7105,-0.7164,-0.717,-0.7179,-0.7167,-0.7201,-0.7202,-0.7204,-0.7202,-0.7201,-0.7148,0,0,0,0,0,0,-0.6957,-0.6964,-0.696,-0.7001,-0.7011,-0.7026,-0.7062,-0.7071,-0.7083,-0.7088,-0.7127,-0.7135,-0.7165,-0.7176,-0.7181,-0.717,-0.7204,-0.7205,-0.7203,-0.7201,-0.7151,-0.7145,-0.714,0,0,0,0,0,-0.6955,-0.6943,-0.696,-0.6966,-0.7006,-0.7025,-0.7031,-0.7065,-0.7082,-0.7079,-0.7106,-0.7134,-0.7168,-0.7177,-0.7182,-0.7172,-0.7206,-0.7204,-0.7201,-0.7153,-0.7146,-0.714,0,0,0,0,0,0,-0.6901,-0.6949,-0.6968,-0.6969,-0.6992,-0.7034,-0.7031,-0.7056,-0.7075,-0.7079,-0.7122,-0.713,-0.7134,-0.7155,-0.7163,-0.7166,-0.7191,-0.719,-0.7152,-0.7146,-0.714,-0.7135,-0.7205,0,0,0,0,0,-0.6889,-0.6899,-0.6941,-0.6938,-0.6949,-0.6988,-0.6997,-0.7022,-0.7048,-0.7058,-0.7087,-0.7111,-0.7128,-0.7138,-0.7156,-0.7154,-0.7164,-0.715,-0.7145,-0.714,-0.7138,-0.714,-0.7134,-0.7193,-0.7193,-0.7193,0,0,-0.6864,-0.6892,-0.6896,-0.6928,-0.6949,-0.6959,-0.6996,-0.7005,-0.7014,-0.706,-0.707,-0.7092,-0.7123,-0.7126,-0.7129,-0.7143,-0.7124,-0.7137,-0.7133,-0.7134,-0.7137,-0.7131,-0.7126,-0.7192,-0.7192,-0.7192,0,0,-0.6825,-0.6847,-0.6847,-0.6867,-0.6898,-0.6925,-0.6924,-0.6963,-0.6979,-0.699,-0.7025,-0.7036,-0.7063,-0.7084,-0.7098,-0.7068,-0.7094,-0.7072,-0.7043,-0.7044,-0.7039,-0.7035,-0.7024,-0.702,-0.7071,-0.7071,-0.7071,0,-0.6791,-0.6807,-0.6844,-0.6851,-0.6865,-0.6907,-0.6907,-0.6926,-0.6961,-0.697,-0.6984,-0.702,-0.7044,-0.7053,-0.7046,-0.7056,-0.7058,-0.7068,-0.7037,-0.7033,-0.703,-0.702,-0.7016,-0.7068,-0.7068,-0.7068,-0.7069,0,-0.6764,-0.6775,-0.6772,-0.6804,-0.6817,-0.6821,-0.6859,-0.6868,-0.6892,-0.6917,-0.6927,-0.6957,-0.6982,-0.6986,-0.701,-0.6999,-0.7007,-0.7028,-0.7054,-0.7021,-0.7012,-0.7009,-0.7064,-0.7065,-0.7066,-0.7066,0,0,-0.6692,-0.6745,-0.6743,-0.6758,-0.6796,-0.6806,-0.6812,-0.6836,-0.6843,-0.6866,-0.6873,-0.6896,-0.6916,-0.6932,-0.6958,-0.6959,-0.6933,-0.6981,-0.6982,-0.6971,-0.6924,-0.6907,-0.6903,-0.6951,-0.6951,-0.695,-0.6922,0,-0.6659,-0.6672,-0.6705,-0.6708,-0.6719,-0.676,-0.6766,-0.679,-0.6813,-0.6827,-0.6854,-0.6869,-0.6895,-0.6905,-0.6907,-0.6936,-0.6925,-0.6939,-0.6959,-0.6959,-0.6949,-0.6898,-0.688,-0.6852,-0.6919,-0.6918,-0.6918,0,-0.6622,-0.6642,-0.6646,-0.6683,-0.6689,-0.6694,-0.6718,-0.673,-0.6759,-0.6777,-0.6794,-0.6824,-0.6834,-0.6858,-0.6873,-0.6881,-0.6892,-0.6907,-0.6907,-0.691,-0.6936,-0.69,-0.6844,-0.6839,-0.6913,-0.6913,-0.6914,0,-0.6569,-0.6597,-0.6603,-0.6615,-0.6659,-0.6661,-0.668,-0.671,-0.6722,-0.6744,-0.6752,-0.6775,-0.6788,-0.6806,-0.6841,-0.6855,-0.6852,-0.6879,-0.6867,-0.6866,-0.6864,-0.6864,-0.6809,-0.6871,-0.6871,-0.6871,-0.6871,0,-0.6529,-0.6529,-0.658,-0.6584,-0.6586,-0.6625,-0.6627,-0.6649,-0.6675,-0.6685,-0.6722,-0.673,-0.6776,-0.679,-0.6817,-0.6826,-0.6831,-0.6846,-0.6853,-0.6843,-0.6841,-0.685,-0.6852,-0.687,-0.687,-0.687,-0.6871,0,-0.647,-0.6504,-0.6513,-0.6554,-0.6564,-0.6564,-0.6599,-0.6605,-0.6631,-0.6643,-0.6648,-0.6689,-0.6707,-0.6744,-0.6773,-0.6792,-0.6793,-0.6807,-0.6783,-0.6788,-0.6774,-0.6774,-0.6723,-0.6718,-0.6783,-0.6782,-0.6782,0,-0.6441,-0.6443,-0.6484,-0.6492,-0.6509,-0.6523,-0.6535,-0.6574,-0.6586,-0.6619,-0.6621,-0.6642,-0.6661,-0.6688,-0.6722,-0.6744,-0.6758,-0.6738,-0.6761,-0.6751,-0.6758,-0.6757,-0.6757,-0.6733,-0.6732,-0.6731,-0.673,0,-0.6388,-0.6405,-0.6421,-0.6443,-0.6456,-0.6476,-0.6498,-0.6503,-0.6547,-0.6559,-0.6577,-0.6592,-0.6621,-0.6642,-0.6669,-0.669,-0.6718,-0.6723,-0.6721,-0.671,-0.6697,-0.6704,-0.6769,-0.6724,-0.6725,-0.6725,-0.6725,-0.6726,-0.6344,-0.6347,-0.6376,-0.6393,-0.6413,-0.6432,-0.644,-0.6467,-0.6483,-0.6509,-0.6531,-0.6548,-0.6578,-0.6618,-0.6636,-0.6651,-0.6664,-0.6662,-0.6662,-0.666,-0.6656,-0.6694,-0.6656,-0.6656,-0.6657,-0.6657,-0.6657,0,-0.6292,-0.6313,-0.6328,-0.6357,-0.637,-0.6395,-0.642,-0.643,-0.6444,-0.6469,-0.6487,-0.6509,-0.6529,-0.6564,-0.6588,-0.6593,-0.6606,-0.6597,-0.6597,-0.6602,-0.6642,-0.6641,-0.6586,-0.6586,-0.6586,-0.6586,-0.6586,-0.6586,-0.6267,-0.6274,-0.6294,-0.6311,-0.6333,-0.6349,-0.6361,-0.6379,-0.64,-0.6422,-0.6439,-0.6461,-0.6491,-0.6517,-0.6537,-0.6547,-0.6554,-0.6541,-0.6555,-0.6592,-0.6599,-0.6605,-0.6604,-0.6542,-0.6542,-0.6513,-0.6513,-0.6513]},{"header":{"parameterUnit":"m.s-1","parameterCategory":1,"la1":30.2991,"la2":30.254,"lo1":-89.0895,"lo2":-89.0444,"dy":0.0017,"dx":0.0017,"nx":28,"ny":28,"refTime":"2024-05-16T09:00:00:Z","depth":0,"parameterNumber":3,"parameterNumberName":"V-component_of_WINDS"},"data":[0,0,0,0,0,0,0,0,0,0,0,0,0,0,0,0,0,0,0,0,0,0,0,0,0,0,0,0,0,0,0,0,0,0,0,0,0,0,0,0,0,0,0,0,0,0,0,0,0,0,0,0,0,0,0,0,0,0,6.8898,6.8898,0,6.8859,6.8859,6.8858,6.8763,6.8761,6.8759,6.8757,6.8719,6.872,6.8721,0,0,0,0,0,0,0,0,0,0,0,0,0,6.8895,6.8895,6.8898,6.8898,6.8897,6.8859,6.8858,6.8858,6.8763,6.876,6.8758,6.8756,6.8719,6.872,6.8721,0,0,0,0,0,0,0,0,0,0,0,0,0,6.888,6.8896,6.8899,6.8845,6.884,6.8859,6.8858,6.8858,6.8763,6.876,6.8757,6.8755,6.8719,6.872,6.8721,6.879,0,0,6.8725,6.8726,0,0,0,0,0,0,0,0,6.8881,6.888,6.8854,6.8849,6.8843,6.8812,6.8843,6.8835,6.8764,6.8793,6.8757,6.8753,6.8753,6.8751,6.8751,6.8788,6.8786,6.8725,6.8726,6.8727,6.8727,0,0,0,0,0,0,0,6.8882,6.8882,6.8883,6.8853,6.8847,6.8825,6.8819,6.8841,6.879,6.879,6.8783,6.8779,6.875,6.875,6.8749,6.8786,6.8725,6.8727,6.8727,6.8728,6.8878,6.8881,0,0,0,0,0,0,6.889,6.8883,6.8884,6.8882,6.8855,6.8827,6.8821,6.8825,6.879,6.8781,6.8782,6.8775,6.8749,6.8748,6.8747,6.8824,6.8727,6.8728,6.8729,6.8874,6.8878,6.8882,0,0,0,0,0,0,6.8891,6.8891,6.8886,6.888,6.8878,6.883,6.8836,6.8826,6.8826,6.8784,6.8774,6.8791,6.8746,6.8746,6.878,6.8822,6.8729,6.873,6.8871,6.8876,6.888,6.898,0,0,0,0,0,0,6.8891,6.8892,6.8917,6.8882,6.8879,6.8918,6.8839,6.8828,6.8828,6.8819,6.879,6.8782,6.8744,6.8778,6.8781,6.8822,6.8731,6.8867,6.8873,6.8878,6.8973,6.8988,6.9,0,0,0,0,0,6.8891,6.8947,6.8918,6.8919,6.8908,6.892,6.8919,6.8873,6.8832,6.8857,6.883,6.8783,6.8817,6.8783,6.8785,6.8827,6.8864,6.8871,6.8878,6.8966,6.8985,6.9,0,0,0,0,0,0,6.8989,6.8942,6.8909,6.8955,6.8943,6.8904,6.8934,6.8894,6.8893,6.8884,6.8828,6.8823,6.8865,6.8849,6.8812,6.8891,6.8833,6.8841,6.8899,6.8916,6.893,6.8932,6.8732,0,0,0,0,0,6.9016,6.9029,6.8987,6.9032,6.9027,6.8982,6.8986,6.8952,6.8937,6.8931,6.8906,6.8895,6.8902,6.8909,6.8914,6.8971,6.8963,6.9001,6.9015,6.9026,6.9033,6.9062,6.9078,6.8905,6.8905,6.8905,0,0,6.9072,6.9048,6.9059,6.9051,6.9037,6.9053,6.8978,6.8998,6.9009,6.8934,6.8964,6.8946,6.8929,6.8975,6.8994,6.8964,6.908,6.9035,6.9045,6.9046,6.9071,6.9088,6.9102,6.891,6.8909,6.8908,0,0,6.9181,6.9164,6.9199,6.9187,6.9166,6.9136,6.9145,6.9113,6.9098,6.9127,6.9071,6.9085,6.91,6.909,6.9087,6.9194,6.9151,6.9197,6.9269,6.9298,6.9311,6.9323,6.9361,6.9375,6.9205,6.9205,6.9205,0,6.9253,6.9273,6.9223,6.9246,6.9244,6.9176,6.9212,6.9203,6.9186,6.9187,6.9153,6.917,6.9154,6.9197,6.9223,6.9223,6.9231,6.9199,6.9313,6.9325,6.9335,6.937,6.9384,6.9211,6.921,6.921,6.9209,0,6.9362,6.9377,6.9408,6.9392,6.9394,6.9424,6.9379,6.9387,6.9354,6.9327,6.9359,6.9337,6.9337,6.9345,6.9312,6.9383,6.9364,6.9323,6.9263,6.9358,6.939,6.9403,6.9219,6.9217,6.9215,6.9214,0,0,6.9531,6.9487,6.9499,6.9491,6.9464,6.9475,6.9502,6.9501,6.9509,6.95,6.9521,6.9536,6.9498,6.9495,6.9461,6.9486,6.9572,6.9441,6.944,6.9466,6.9648,6.9678,6.9694,6.9544,6.9546,6.9548,6.9649,0,6.9632,6.9674,6.963,6.9681,6.9695,6.9632,6.9655,6.9642,6.9619,6.9628,6.9602,6.9613,6.9562,6.956,6.9582,6.9557,6.9607,6.9549,6.9563,6.9564,6.9567,6.9711,6.9743,6.9839,6.9661,6.9663,6.9665,0,6.9756,6.9752,6.9804,6.9774,6.9778,6.98,6.9795,6.9804,6.9788,6.977,6.9767,6.9726,6.9751,6.9694,6.9728,6.9689,6.9693,6.9682,6.9684,6.9683,6.9619,6.9712,6.9868,6.9882,6.9684,6.9682,6.9681,0,6.9872,6.988,6.9912,6.9907,6.9873,6.989,6.9877,6.9858,6.986,6.9857,6.9858,6.9858,6.9858,6.986,6.982,6.9782,6.986,6.9799,6.9845,6.9846,6.9863,6.9862,7.0021,6.9868,6.9868,6.9867,6.9867,0,6.9989,7.0024,6.9964,6.9983,7.002,6.997,7.0009,6.9989,6.9974,6.9989,6.9936,6.9952,6.9899,6.991,6.988,6.9913,6.9914,6.99,6.9891,6.9903,6.9905,6.9904,6.9896,6.9871,6.987,6.987,6.9869,0,7.0125,7.0086,7.0116,7.0082,7.0074,7.0103,7.0074,7.0091,7.0065,7.0085,7.0087,7.0047,7.0057,7.0018,7.0022,7.0001,7.005,7.0031,7.0055,7.0048,7.0096,7.0092,7.0258,7.0277,7.0114,7.0116,7.0117,0,7.0201,7.0226,7.0194,7.02,7.0189,7.02,7.0201,7.0154,7.0158,7.0143,7.0162,7.0168,7.0169,7.0189,7.016,7.0163,7.0143,7.0201,7.0143,7.0155,7.0142,7.0141,7.0143,7.0213,7.0215,7.0216,7.0218,0,7.0341,7.0321,7.0324,7.0322,7.0325,7.0321,7.0313,7.0322,7.0271,7.0279,7.0288,7.0289,7.0293,7.0299,7.0296,7.0283,7.0243,7.0237,7.0247,7.0259,7.0272,7.0265,7.0086,7.0232,7.0231,7.023,7.0229,7.0228,7.0448,7.0467,7.0447,7.0453,7.0443,7.0437,7.0452,7.0427,7.0433,7.0432,7.0404,7.0419,7.0403,7.0395,7.0387,7.0398,7.0371,7.0386,7.039,7.0394,7.0402,7.0271,7.0398,7.0397,7.0397,7.0396,7.0396,0,7.0584,7.0568,7.0575,7.0565,7.0571,7.0531,7.0521,7.0528,7.0541,7.053,7.0533,7.0543,7.0549,7.0522,7.0524,7.0539,7.052,7.0541,7.0538,7.0536,7.0427,7.0417,7.0556,7.0556,7.0556,7.0556,7.0556,7.0556,7.0655,7.0685,7.0663,7.0687,7.0671,7.0684,7.0682,7.0677,7.0667,7.0681,7.0686,7.0667,7.0649,7.065,7.0654,7.0646,7.0649,7.0676,7.0662,7.056,7.0544,7.0529,7.0519,7.0678,7.0678,7.077,7.0771,7.0771]}]]